Zurück zum Katalog

HULIANWANG DIGUI-172

AktivWissenschaftLEO
NORAD 69575·PAYLOAD·🇨🇳 China

Gestartet Jun 17, 2026 von Wenchang Space Launch Site

Loading…

Nächste Überflüge (nächste 24 Stunden)

TLE

AktuellSource: Space-Track

Epoche: Sep 14, 2026, 01:50 UTC

1 69575U 26137D   26257.07656363 -.00000098  00000-0  56852-4 0  9997
2 69575  49.9965 277.0825 0000187 321.6330  38.4529 13.29326173 12158

Verfolge HULIANWANG DIGUI-172 in Echtzeit mit AllMySat

Download on the App Store